When you browse on this site, cookies collect data to enhance your experience and personalize the content and advertising you see.
Visit our Privacy Policy to learn more. By continuing to use the site, you agree to this use of cookies and data.
  • en France
  • Liste des pays
  • À 7 jours
  • Température de l'eau
  • Carte satellitaire
  • Carte météo
  • Widgets météo
  • user-avatar
    Se connecter

    Météo par heure à Igls

    Ce jour, 12 Décembre, Mercredi

    Heure Température Précipitation Vent Pression Humidité
    00:00 -7°C° 0 mm 1 m/s 685 mmHg 89%
    01:00 -8°C° 0 mm 2 m/s 685 mmHg 87%
    02:00 -8°C° 0 mm 2 m/s 685 mmHg 87%
    03:00 -8°C° 0 mm 2 m/s 685 mmHg 87%
    04:00 -8°C° 0 mm 2 m/s 685 mmHg 87%
    05:00 -9°C° 0 mm 2 m/s 685 mmHg 87%
    06:00 -9°C° 0 mm 2 m/s 685 mmHg 88%
    07:00 -8°C° 0 mm 2 m/s 685 mmHg 89%
    08:00 -6°C° 0 mm 1 m/s 685 mmHg 87%
    09:00 -4°C° 0 mm 1 m/s 685 mmHg 85%
    10:00 -3°C° 0 mm 1 m/s 685 mmHg 83%
    11:00 -1°C° 0 mm 1 m/s 685 mmHg 79%
    12:00 0°C° 0 mm 1 m/s 685 mmHg 76%
    13:00 +1°C° 0 mm 1 m/s 685 mmHg 72%
    14:00 -1°C° 0 mm 1 m/s 684 mmHg 77%
    15:00 -2°C° 0 mm 1 m/s 684 mmHg 82%
    16:00 -3°C° 0 mm 1 m/s 683 mmHg 87%
    17:00 -4°C° 0 mm 1 m/s 683 mmHg 88%
    18:00 -6°C° 0 mm 1 m/s 683 mmHg 89%
    19:00 -7°C° 0 mm 1 m/s 683 mmHg 90%
    20:00 -7°C° 0 mm 1 m/s 683 mmHg 88%
    21:00 -7°C° 0 mm 1 m/s 683 mmHg 86%
    22:00 -8°C° 0 mm 1 m/s 683 mmHg 85%
    23:00 -8°C° 0 mm 1 m/s 683 mmHg 84%

    Demain, 13 Décembre, Jeudi

    Heure Température Précipitation Vent Pression Humidité
    00:00 -8°C° 0 mm 1 m/s 683 mmHg 83%
    01:00 -9°C° 0 mm 2 m/s 682 mmHg 82%
    02:00 -9°C° 0 mm 2 m/s 682 mmHg 82%
    03:00 -10°C° 0 mm 2 m/s 682 mmHg 82%
    04:00 -10°C° 0 mm 2 m/s 682 mmHg 81%
    05:00 -10°C° 0 mm 2 m/s 681 mmHg 81%
    06:00 -10°C° 0 mm 2 m/s 681 mmHg 81%
    07:00 -10°C° 0 mm 2 m/s 681 mmHg 81%
    08:00 -9°C° 0 mm 2 m/s 681 mmHg 79%
    09:00 -7°C° 0 mm 2 m/s 681 mmHg 77%
    10:00 -6°C° 0 mm 2 m/s 681 mmHg 75%
    11:00 -4°C° 0 mm 2 m/s 681 mmHg 73%
    12:00 -3°C° 0 mm 2 m/s 681 mmHg 71%
    13:00 -2°C° 0 mm 2 m/s 681 mmHg 69%
    14:00 -3°C° 0 mm 2 m/s 680 mmHg 74%
    15:00 -2°C° 0 mm 1 m/s 680 mmHg 78%
    16:00 -3°C° 0 mm 1 m/s 679 mmHg 83%
    17:00 -4°C° 0 mm 1 m/s 680 mmHg 83%
    18:00 -7°C° 0 mm 2 m/s 680 mmHg 83%
    19:00 -8°C° 0 mm 2 m/s 680 mmHg 83%
    20:00 -8°C° 0 mm 2 m/s 680 mmHg 82%
    21:00 -8°C° 0 mm 2 m/s 680 mmHg 81%
    22:00 -8°C° 0 mm 2 m/s 680 mmHg 80%
    23:00 -8°C° 0 mm 2 m/s 680 mmHg 79%

    Après-demain, 14 Décembre, Vendredi

    Heure Température Précipitation Vent Pression Humidité
    00:00 -8°C° 0 mm 2 m/s 680 mmHg 79%
    01:00 -8°C° 0 mm 2 m/s 680 mmHg 79%
    02:00 -8°C° 0 mm 2 m/s 680 mmHg 78%
    03:00 -8°C° 0 mm 2 m/s 680 mmHg 78%
    04:00 -9°C° 0 mm 2 m/s 680 mmHg 78%
    05:00 -9°C° 0 mm 2 m/s 680 mmHg 77%
    06:00 -8°C° 0 mm 1 m/s 680 mmHg 76%
    07:00 -8°C° 0 mm 1 m/s 680 mmHg 76%
    08:00 -6°C° 0 mm 1 m/s 681 mmHg 74%
    09:00 -4°C° 0 mm 1 m/s 681 mmHg 72%
    10:00 -2°C° 0 mm 1 m/s 681 mmHg 70%
    11:00 -1°C° 0 mm 1 m/s 681 mmHg 67%
    12:00 0°C° 0 mm 1 m/s 681 mmHg 63%
    13:00 +2°C° 0 mm 1 m/s 681 mmHg 60%
    14:00 0°C° 0 mm 1 m/s 681 mmHg 68%
    15:00 -1°C° 0 mm 1 m/s 681 mmHg 76%
    16:00 -3°C° 0 mm 1 m/s 681 mmHg 83%
    17:00 -4°C° 0 mm 1 m/s 681 mmHg 84%
    18:00 -6°C° 0 mm 1 m/s 681 mmHg 85%
    19:00 -7°C° 0 mm 1 m/s 682 mmHg 86%
    20:00 -7°C° 0 mm 1 m/s 682 mmHg 83%
    21:00 -7°C° 0 mm 1 m/s 682 mmHg 80%
    22:00 -7°C° 0 mm 1 m/s 682 mmHg 76%
    23:00 -7°C° 0 mm 1 m/s 682 mmHg 74%

    15 Décembre, Samedi

    Heure Température Précipitation Vent Pression Humidité
    00:00 -8°C° 0 mm 1 m/s 683 mmHg 73%
    01:00 -8°C° 0 mm 1 m/s 683 mmHg 71%
    02:00 -8°C° 0 mm 1 m/s 683 mmHg 72%
    03:00 -8°C° 0 mm 1 m/s 683 mmHg 73%
    04:00 -8°C° 0 mm 1 m/s 683 mmHg 74%
    05:00 -9°C° 0 mm 2 m/s 683 mmHg 75%
    06:00 -9°C° 0 mm 2 m/s 683 mmHg 77%
    07:00 -10°C° 0 mm 2 m/s 684 mmHg 78%
    08:00 -7°C° 0 mm 1 m/s 684 mmHg 78%
    09:00 -6°C° 0 mm 1 m/s 684 mmHg 78%
    10:00 -4°C° 0 mm 1 m/s 684 mmHg 77%
    11:00 -3°C° 0 mm 1 m/s 684 mmHg 77%
    12:00 -4°C° 0 mm 2 m/s 684 mmHg 76%
    13:00 -2°C° 0 mm 2 m/s 684 mmHg 75%
    14:00 -4°C° 0 mm 2 m/s 684 mmHg 79%
    15:00 -3°C° 0 mm 1 m/s 684 mmHg 83%
    16:00 -4°C° 0 mm 1 m/s 684 mmHg 87%
    17:00 -6°C° 0 mm 1 m/s 684 mmHg 85%
    18:00 -7°C° 0 mm 1 m/s 684 mmHg 84%
    19:00 -8°C° 0 mm 1 m/s 684 mmHg 82%
    20:00 -7°C° 0 mm 1 m/s 684 mmHg 77%
    21:00 -7°C° 0 mm 1 m/s 684 mmHg 73%
    22:00 -7°C° 0 mm 1 m/s 684 mmHg 68%
    23:00 -7°C° 0 mm 1 m/s 684 mmHg 64%

    16 Décembre, Dimanche

    Heure Température Précipitation Vent Pression Humidité
    00:00 -7°C° 0 mm 1 m/s 684 mmHg 61%
    01:00 -7°C° 0 mm 1 m/s 684 mmHg 57%
    02:00 -6°C° 0 mm 1 m/s 684 mmHg 55%
    03:00 -6°C° 0 mm 1 m/s 683 mmHg 52%
    04:00 -7°C° 0 mm 2 m/s 683 mmHg 50%
    05:00 -6°C° 0 mm 2 m/s 683 mmHg 48%
    06:00 -6°C° 0 mm 2 m/s 683 mmHg 46%
    07:00 -5°C° 0 mm 2 m/s 683 mmHg 44%
    08:00 -3°C° 0 mm 2 m/s 683 mmHg 47%
    09:00 -1°C° 0 mm 2 m/s 683 mmHg 49%
    10:00 +2°C° 0 mm 2 m/s 683 mmHg 52%
    11:00 +3°C° 0.1 mm 2 m/s 683 mmHg 55%
    12:00 +4°C° 0.1 mm 2 m/s 683 mmHg 58%
    13:00 +5°C° 0.1 mm 2 m/s 683 mmHg 61%
    14:00 +5°C° 0.1 mm 2 m/s 682 mmHg 62%
    15:00 +4°C° 0.1 mm 2 m/s 682 mmHg 63%
    16:00 +4°C° 0.1 mm 1 m/s 682 mmHg 65%
    17:00 +3°C° 0 mm 2 m/s 682 mmHg 63%
    18:00 +2°C° 0 mm 2 m/s 682 mmHg 61%
    19:00 +2°C° 0 mm 2 m/s 682 mmHg 60%
    20:00 +1°C° 0 mm 2 m/s 682 mmHg 61%
    21:00 +1°C° 0 mm 2 m/s 682 mmHg 62%
    22:00 +1°C° 0 mm 2 m/s 682 mmHg 64%
    23:00 +1°C° 0.2 mm 2 m/s 682 mmHg 68%

    17 Décembre, Lundi

    Heure Température Précipitation Vent Pression Humidité
    00:00 +1°C° 0.2 mm 2 m/s 682 mmHg 73%
    01:00 +1°C° 0.2 mm 2 m/s 682 mmHg 77%
    02:00 +1°C° 0.3 mm 2 m/s 682 mmHg 80%
    03:00 +2°C° 0.3 mm 1 m/s 682 mmHg 83%
    04:00 +2°C° 0.3 mm 1 m/s 682 mmHg 86%
    05:00 +2°C° 0.3 mm 1 m/s 682 mmHg 88%
    06:00 +2°C° 0.3 mm 1 m/s 682 mmHg 89%
    07:00 +1°C° 0.3 mm 0 m/s 683 mmHg 91%
    08:00 +3°C° 0.5 mm 1 m/s 683 mmHg 92%
    09:00 +3°C° 0.5 mm 1 m/s 683 mmHg 92%
    10:00 +3°C° 0.5 mm 1 m/s 684 mmHg 93%
    11:00 +4°C° 0.4 mm 1 m/s 684 mmHg 92%
    12:00 +4°C° 0.4 mm 1 m/s 684 mmHg 92%
    13:00 +5°C° 0.4 mm 1 m/s 683 mmHg 92%
    14:00 +4°C° 0.3 mm 1 m/s 683 mmHg 93%
    15:00 +4°C° 0.3 mm 1 m/s 684 mmHg 94%
    16:00 +4°C° 0.3 mm 1 m/s 684 mmHg 95%
    17:00 +3°C° 0.3 mm 1 m/s 684 mmHg 95%
    18:00 +3°C° 0.3 mm 1 m/s 685 mmHg 95%
    19:00 +2°C° 0.3 mm 2 m/s 685 mmHg 95%
    20:00 +2°C° 0.4 mm 2 m/s 685 mmHg 95%
    21:00 +2°C° 0.4 mm 2 m/s 686 mmHg 95%
    22:00 +1°C° 0.4 mm 2 m/s 686 mmHg 95%
    23:00 +1°C° 0.3 mm 2 m/s 686 mmHg 95%
    Voir plus